SCP
0 0 0 0 0 0 0 0 0 0 0 0 0 0 0 0 0 0 0 0 0 0 0 0 0 1 1 1 1 1 1 0 0 0 0 0 0 0 0 0 0 0 0
1 0 0 0 0 0 0 0 0 0 0 0 0 0 1 1 1 1 0 1 1 1 1 0 0 1 0 1 1 1 1 1 0 0 1 1 0 0 0 0 0 0 0
1 0 0 0 0 0 0 0 0 0 0 0 1 1 2 1 2 2 1 0 1 1 2 1 1 1 1 1 1 1 1 1 1 1 1 1 1 0 0 0 0 0 0
0 1 1 0 0 0 1 0 0 0 0 0 1 2 2 2 2 2 1 2 2 4 4 2 1 1 1 1 1 1 1 1 1 1 1 1 1 0 0 0 0 0 0
0 1 1 1 1 1 1 0 0 1 1 2 1 1 1 1 1 1 2 2 3 2 3 1 0 0 1 1 1 1 1 1 0 1 1 0 0 1 1 0 0 0 0
1 1 1 1 1 1 1 1 1 1 1 1 1 0 1 2 1 0 1 1 1 2 1 2 0 0 0 0 0 0 1 1 1 0 0 0 0 0 1 1 1 1 0
1 1 1 1 2 2 2 1 1 1 1 1 2 1 0 1 0 0 0 1 0 1 1 0 0 0 0 0 0 0 0 1 1 1 0 0 0 0 0 1 1 1 1
1 1 1 1 1 1 1 1 1 2 2 2 2 1 1 0 0 0 0 0 0 0 0 0 0 0 0 0 0 0 0 0 1 1 1 0 0 0 0 0 0 1 1
1 1 1 1 1 1 1 1 1 1 1 2 2 1 0 0 0 0 0 0 0 0 0 0 0 0 0 0 0 0 0 0 0 1 1 0 0 0 0 0 0 0 1
1 1 1 1 1 1 1 1 1 1 1 1 1 1 0 0 0 0 0 0 0 0 0 0 0 0 0 0 0 0 0 0 0 0 0 0 0 0 0 0 0 1 1
1 1 1 1 1 1 1 1 1 1 1 1 1 1 1 0 0 0 0 0 0 0 0 0 0 0 0 0 0 0 0 0 0 0 0 0 0 0 0 0 0 0 1
0 0 0 0 0 0 0 0 0 0 0 0 1 1 1 1 0 0 0 0 0 0 0 0 0 0 1 1 0 0 0 0 0 0 0 0 0 0 0 0 0 0 1
0 0 0 0 0 0 0 0 0 0 0 0 0 0 0 0 0 0 1 0 0 0 0 0 1 0 0 0 0 0 0 0 0 0 0 0 0 0 0 0 0 0 1
0 0 0 0 0 0 0 0 0 0 0 0 0 0 0 0 0 0 0 0 0 0 0 1 1 0 0 0 0 0 0 0 0 0 0 0 0 0 0 0 0 0 0
0 0 0 0 0 0 0 0 0 0 0 0 0 0 0 0 0 0 0 0 0 0 0 0 0 0 0 0 0 0 0 0 0 0 0 0 0 0 0 0 0 0 0
0 0 0 0 0 0 0 0 0 0 0 0 0 0 0 0 0 0 0 0 0 0 0 0 0 0 0 0 0 0 0 0 0 0 0 0 0 0 0 0 0 0 0
0 0 0 0 0 0 0 0 0 0 0 0 0 0 0 0 0 0 0 0 0 0 0 0 0 0 0 0 0 0 0 0 0 0 0 0 0 0 0 0 0 0 0
0 0 0 0 0 0 0 0 0 0 0 0 0 0 0 0 0 0 0 0 0 0 0 0 0 0 0 0 0 0 0 0 0 0 0 0 0 0 0 0 0 0 0
0 0 0 0 0 0 0 0 0 0 0 0 0 0 0 0 0 0 0 0 0 0 0 0 0 0 0 0 0 0 0 0 0 0 0 0 0 0 0 0 0 0 0
0 0 0 0 0 0 0 0 0 0 0 0 0 0 0 0 0 0 0 0 0 0 0 0 0 0 0 0 0 0 0 0 0 0 0 0 0 0 0 0 0 0 0
0 0 0 0 0 0 0 0 0 0 0 0 0 0 0 0 -0 0 0 0 0 0 0 0 0 0 0 0 0 0 0 0 0 0 0 0 0 0 0 0 0 0 0
0 0 0 0 0 0 0 0 0 0 0 0 0 0 -0 0 0 -0 0 0 0 0 0 0 0 0 0 0 0 0 0 0 0 0 0 0 0 0 0 0 0 0 0
0 0 0 0 0 0 0 0 0 0 0 0 0 0 -0 -0 -0 0 0 0 0 0 0 0 0 0 0 0 0 0 0 0 0 0 0 0 0 0 0 0 0 0 0
0 0 0 0 0 0 0 0 0 0 0 0 0 -0 -0 -0 -0 -0 0 0 0 0 0 0 0 0 0 0 0 0 0 0 0 0 0 0 0 0 0 0 -0 -0 -0
0 0 0 0 0 0 0 0 0 -0 -0 -0 -0 -0 -0 0 0 0 -0 0 0 0 0 0 0 0 0 0 0 0 0 0 0 0 0 0 0 0 0 0 0 -0 -0
0 0 0 0 0 0 0 -0 -0 -0 -0 0 -0 0 -0 0 0 0 -0 -0 -0 -0 0 0 0 0 0 0 0 0 0 0 0 0 0 0 0 0 -0 0 -0 0 0
Wind_Speed_500mb
31 28 27 24 25 26 29 32 33 35 37 41 40 38 36 36 38 38 34 43 40 45 48 50 50 48 45 42 43 40 41 45 44 43 44 43 44 42 41 40 42 41 46
32 27 26 24 25 26 28 30 33 37 40 37 38 37 41 41 42 41 37 38 48 47 53 57 56 51 47 46 44 41 40 41 44 40 41 44 46 50 51 51 51 48 48
40 34 25 23 25 27 31 33 35 37 37 39 39 40 42 42 36 36 41 38 42 46 50 52 55 54 54 49 42 43 40 37 41 40 37 40 45 47 49 50 51 54 54
44 35 26 24 26 28 32 34 32 35 37 39 37 36 37 35 36 44 50 55 44 39 36 45 50 55 49 42 39 44 45 43 39 35 33 31 32 37 43 44 45 46 49
31 36 30 35 36 39 41 33 35 37 37 39 35 39 40 41 45 48 49 53 48 48 52 49 57 54 46 39 41 49 48 43 38 34 32 31 29 32 36 38 41 44 48
32 34 31 34 37 34 32 34 36 38 39 42 42 52 48 45 45 46 67 71 60 51 57 59 49 49 48 41 48 53 49 45 41 37 34 35 37 37 38 41 43 45 48
30 33 24 28 31 34 36 40 39 42 44 46 49 54 57 47 51 54 75 83 79 74 63 60 54 64 45 51 48 51 53 48 49 43 40 39 40 41 43 45 44 43 45
29 32 35 35 34 37 39 40 45 50 48 41 43 49 57 57 59 59 54 59 67 95 89 62 62 54 59 51 43 41 61 64 57 53 50 49 48 49 50 52 52 47 46
30 35 43 40 38 41 36 39 43 47 49 49 47 45 27 19 36 48 55 53 54 56 74 77 75 60 41 50 34 59 74 67 65 63 60 58 57 60 60 59 56 55 50
25 29 26 23 27 28 33 35 29 33 32 32 30 29 35 43 35 39 42 52 45 46 50 60 48 30 32 47 63 74 77 70 66 67 68 68 68 68 70 70 66 61 56
15 16 21 26 31 31 35 37 36 30 25 28 27 33 39 42 46 39 50 40 29 42 33 31 24 27 27 57 63 70 75 80 79 75 79 83 82 79 79 79 74 70 64
13 15 16 18 23 26 28 29 30 37 38 40 43 44 44 35 31 34 42 48 47 44 35 33 43 49 62 63 72 82 92 92 92 91 89 89 86 80 80 85 83 78 73
4 13 18 20 22 26 28 29 32 32 34 32 36 38 41 46 53 59 64 61 60 56 53 54 46 43 46 46 55 71 84 88 91 95 94 94 93 89 85 85 87 84 84
14 20 25 24 26 30 35 34 23 30 37 36 38 37 38 35 44 46 48 54 61 63 63 61 53 51 52 52 58 83 93 74 93 93 82 82 92 89 86 87 89 90 85
14 18 23 27 31 33 37 39 44 42 38 35 34 33 35 27 29 30 33 35 45 61 71 59 54 50 54 56 50 68 84 92 102 108 106 104 98 92 91 94 91 92 86
15 19 25 31 34 37 39 38 34 32 38 33 31 36 36 27 32 33 36 36 42 54 78 57 55 57 59 59 64 72 71 79 80 81 83 83 80 81 94 92 82 89 86
21 27 31 32 31 31 34 34 34 30 33 33 33 30 33 33 32 34 36 39 46 49 68 65 56 54 56 58 62 63 62 64 64 65 66 68 68 76 74 72 87 81 73
26 29 29 26 26 27 29 29 27 25 26 28 28 30 31 30 33 34 36 39 43 46 56 68 57 57 60 61 69 68 64 61 60 61 65 65 62 80 81 85 70 71 75
26 25 22 25 25 24 24 23 23 25 28 28 29 30 31 31 34 33 37 42 43 47 52 62 65 58 61 58 64 69 67 70 61 58 55 60 69 68 57 61 67 74 64
21 20 22 21 21 23 23 25 27 28 30 30 32 31 31 32 33 37 42 43 43 45 47 53 59 63 60 60 60 63 66 60 61 55 58 61 59 54 60 66 53 60 68
16 18 19 20 21 22 24 34 34 31 30 32 31 30 28 33 34 36 45 44 46 50 57 60 74 71 75 74 70 70 75 72 67 48 52 47 45 47 44 41 54 44 58
16 16 17 18 20 18 32 33 31 37 33 33 31 25 28 34 34 44 46 53 58 64 68 74 81 86 86 87 86 87 79 69 62 45 48 41 38 48 46 43 52 65 51
13 16 17 19 24 24 31 31 28 27 24 23 27 30 32 30 36 42 51 56 58 58 57 59 66 71 82 77 80 86 79 71 75 62 56 59 50 53 51 50 53 42 50
13 18 22 23 19 26 29 28 27 26 24 25 24 27 27 35 42 50 55 56 62 49 40 48 53 61 68 68 61 60 71 72 71 75 67 68 61 59 52 52 52 50 37
14 19 21 21 21 25 28 28 32 33 31 28 24 21 32 42 45 50 53 58 54 44 42 37 57 56 55 51 46 42 45 48 62 65 54 55 53 49 43 45 39 40 33
13 17 17 17 19 25 25 36 35 37 34 28 21 27 30 35 42 49 57 54 50 43 44 48 54 70 52 53 50 35 30 35 38 33 13 22 37 33 19 18 22 31 28
Wind_Direction_500mb
221 223 221 224 235 242 244 246 247 244 246 248 251 255 256 255 258 260 263 270 265 263 266 264 263 263 262 260 262 265 271 270 268 268 270 270 268 267 268 274 276 274 273
228 224 232 238 240 246 250 250 252 254 256 244 249 249 256 259 262 263 261 259 266 265 269 268 266 261 258 259 260 263 268 268 270 271 274 273 272 271 268 269 269 269 270
235 234 236 245 253 256 258 257 255 253 257 261 252 251 255 261 264 264 272 269 265 266 265 265 262 263 261 255 254 269 265 265 269 270 274 274 271 269 270 271 267 267 268
232 238 245 254 259 265 263 264 262 261 259 260 263 266 262 261 267 268 272 276 265 257 258 270 261 257 252 250 270 273 267 269 267 270 280 279 273 273 272 273 273 275 277
232 242 247 255 263 265 268 266 259 255 256 259 265 269 268 274 281 279 270 270 269 264 255 266 268 256 249 249 263 269 266 265 265 270 279 280 282 283 282 279 279 280 281
237 250 256 263 265 268 269 267 265 260 263 266 271 275 273 277 279 277 282 282 278 278 267 265 268 267 254 250 262 267 263 262 262 267 271 277 282 282 279 278 279 281 284
248 254 254 268 268 272 274 277 270 272 273 275 271 274 277 282 287 288 284 280 270 271 271 271 265 258 264 252 251 268 267 263 262 262 265 271 276 279 281 281 280 281 281
264 263 268 279 276 277 278 277 272 270 268 270 268 280 285 284 285 291 294 302 287 263 265 262 266 267 254 258 267 271 264 259 259 263 266 270 274 279 280 281 284 279 277
272 264 277 279 281 283 279 276 280 278 275 270 267 270 288 275 297 314 303 302 294 278 259 260 264 267 255 264 252 266 262 261 262 265 267 269 272 275 278 278 276 279 274
273 273 274 278 286 285 286 288 289 287 281 278 271 275 276 280 284 301 302 317 308 306 286 269 263 238 260 270 267 256 256 266 268 267 265 270 275 276 276 276 276 272 271
265 273 284 286 281 269 270 279 280 285 272 274 276 278 284 273 276 276 289 301 302 307 280 257 245 278 268 272 259 256 266 268 270 268 267 269 272 274 275 273 272 270 267
283 287 297 299 297 293 292 297 293 282 267 271 270 278 278 265 275 278 276 283 287 293 282 255 260 265 269 265 258 263 270 274 275 273 272 272 273 272 270 269 268 267 265
330 314 314 313 308 307 307 309 308 308 304 301 295 292 280 267 266 267 267 276 281 280 278 275 274 275 269 270 272 266 268 268 271 276 276 274 273 271 266 264 265 266 265
312 312 312 313 314 312 310 307 312 304 301 301 301 299 296 292 286 276 273 278 285 286 282 276 274 274 274 275 273 275 278 279 279 281 278 277 275 272 268 265 261 260 260
303 309 312 315 318 316 314 310 307 307 306 303 297 301 298 292 286 287 283 279 280 285 282 282 282 277 277 281 277 274 277 279 279 278 277 276 273 271 264 260 261 256 256
329 323 322 322 320 317 311 310 312 310 310 307 302 294 300 298 292 291 286 284 276 278 283 288 287 281 275 272 273 278 283 282 286 285 284 278 275 271 268 263 260 254 253
326 326 320 318 317 315 313 313 313 314 308 306 306 306 304 305 300 292 289 284 282 282 284 291 287 286 283 281 283 283 286 288 290 291 287 280 275 269 265 267 258 253 251
323 319 320 320 320 319 317 321 321 314 315 312 312 311 310 307 300 301 300 292 287 286 288 293 297 297 292 289 286 284 282 282 285 287 286 294 297 273 263 257 256 251 249
324 322 321 322 326 323 324 324 328 326 320 318 317 314 309 306 305 300 296 294 293 291 288 291 296 297 292 289 288 286 282 282 283 286 294 295 294 286 271 266 262 249 243
327 327 330 334 333 332 335 331 332 326 320 314 310 307 304 303 300 299 296 300 304 299 299 296 295 298 297 296 290 285 281 275 275 280 280 281 290 301 282 268 264 253 248
333 334 338 334 338 343 310 326 328 325 317 314 312 310 308 297 304 312 309 304 301 301 299 296 299 296 294 294 289 285 283 279 281 279 282 282 287 288 284 278 272 270 256
339 338 344 337 337 323 328 330 333 328 321 314 318 318 319 324 313 310 317 314 309 307 311 309 310 302 306 305 303 294 287 275 277 274 276 283 281 283 286 275 273 265 257
334 0 346 337 344 322 334 342 342 344 350 349 339 337 330 329 336 322 323 327 323 319 314 317 313 315 314 314 312 294 287 280 275 272 276 284 284 283 284 275 278 265 256
356 359 341 349 354 349 358 1 359 353 350 339 347 349 348 346 338 332 338 335 334 336 344 334 329 327 327 331 315 299 294 289 284 282 284 283 290 287 287 285 277 264 248
356 356 347 349 2 5 356 356 354 352 351 4 4 18 4 347 342 345 343 339 341 355 349 356 12 352 344 353 337 301 300 281 281 291 292 281 290 293 294 284 274 266 251
352 352 354 352 353 359 346 350 352 349 356 5 18 18 350 348 1 1 358 2 7 8 9 12 16 15 2 2 0 341 312 303 292 302 354 261 308 320 324 303 339 256 241
Wind_Speed_850mb
31 28 27 24 25 26 29 32 33 35 37 41 40 38 36 36 38 38 34 43 40 45 48 50 50 48 45 42 43 40 41 45 44 43 44 43 44 42 41 40 42 41 46
32 27 26 24 25 26 28 30 33 37 40 37 38 37 41 41 42 41 37 38 48 47 53 57 56 51 47 46 44 41 40 41 44 40 41 44 46 50 51 51 51 48 48
40 34 25 23 25 27 31 33 35 37 37 39 39 40 42 42 36 36 41 38 42 46 50 52 55 54 54 49 42 43 40 37 41 40 37 40 45 47 49 50 51 54 54
44 35 26 24 26 28 32 34 32 35 37 39 37 36 37 35 36 44 50 55 44 39 36 45 50 55 49 42 39 44 45 43 39 35 33 31 32 37 43 44 45 46 49
31 36 30 35 36 39 41 33 35 37 37 39 35 39 40 41 45 48 49 53 48 48 52 49 57 54 46 39 41 49 48 43 38 34 32 31 29 32 36 38 41 44 48
32 34 31 34 37 34 32 34 36 38 39 42 42 52 48 45 45 46 67 71 60 51 57 59 49 49 48 41 48 53 49 45 41 37 34 35 37 37 38 41 43 45 48
30 33 24 28 31 34 36 40 39 42 44 46 49 54 57 47 51 54 75 83 79 74 63 60 54 64 45 51 48 51 53 48 49 43 40 39 40 41 43 45 44 43 45
29 32 35 35 34 37 39 40 45 50 48 41 43 49 57 57 59 59 54 59 67 95 89 62 62 54 59 51 43 41 61 64 57 53 50 49 48 49 50 52 52 47 46
30 35 43 40 38 41 36 39 43 47 49 49 47 45 27 19 36 48 55 53 54 56 74 77 75 60 41 50 34 59 74 67 65 63 60 58 57 60 60 59 56 55 50
25 29 26 23 27 28 33 35 29 33 32 32 30 29 35 43 35 39 42 52 45 46 50 60 48 30 32 47 63 74 77 70 66 67 68 68 68 68 70 70 66 61 56
15 16 21 26 31 31 35 37 36 30 25 28 27 33 39 42 46 39 50 40 29 42 33 31 24 27 27 57 63 70 75 80 79 75 79 83 82 79 79 79 74 70 64
13 15 16 18 23 26 28 29 30 37 38 40 43 44 44 35 31 34 42 48 47 44 35 33 43 49 62 63 72 82 92 92 92 91 89 89 86 80 80 85 83 78 73
4 13 18 20 22 26 28 29 32 32 34 32 36 38 41 46 53 59 64 61 60 56 53 54 46 43 46 46 55 71 84 88 91 95 94 94 93 89 85 85 87 84 84
14 20 25 24 26 30 35 34 23 30 37 36 38 37 38 35 44 46 48 54 61 63 63 61 53 51 52 52 58 83 93 74 93 93 82 82 92 89 86 87 89 90 85
14 18 23 27 31 33 37 39 44 42 38 35 34 33 35 27 29 30 33 35 45 61 71 59 54 50 54 56 50 68 84 92 102 108 106 104 98 92 91 94 91 92 86
15 19 25 31 34 37 39 38 34 32 38 33 31 36 36 27 32 33 36 36 42 54 78 57 55 57 59 59 64 72 71 79 80 81 83 83 80 81 94 92 82 89 86
21 27 31 32 31 31 34 34 34 30 33 33 33 30 33 33 32 34 36 39 46 49 68 65 56 54 56 58 62 63 62 64 64 65 66 68 68 76 74 72 87 81 73
26 29 29 26 26 27 29 29 27 25 26 28 28 30 31 30 33 34 36 39 43 46 56 68 57 57 60 61 69 68 64 61 60 61 65 65 62 80 81 85 70 71 75
26 25 22 25 25 24 24 23 23 25 28 28 29 30 31 31 34 33 37 42 43 47 52 62 65 58 61 58 64 69 67 70 61 58 55 60 69 68 57 61 67 74 64
21 20 22 21 21 23 23 25 27 28 30 30 32 31 31 32 33 37 42 43 43 45 47 53 59 63 60 60 60 63 66 60 61 55 58 61 59 54 60 66 53 60 68
16 18 19 20 21 22 24 34 34 31 30 32 31 30 28 33 34 36 45 44 46 50 57 60 74 71 75 74 70 70 75 72 67 48 52 47 45 47 44 41 54 44 58
16 16 17 18 20 18 32 33 31 37 33 33 31 25 28 34 34 44 46 53 58 64 68 74 81 86 86 87 86 87 79 69 62 45 48 41 38 48 46 43 52 65 51
13 16 17 19 24 24 31 31 28 27 24 23 27 30 32 30 36 42 51 56 58 58 57 59 66 71 82 77 80 86 79 71 75 62 56 59 50 53 51 50 53 42 50
13 18 22 23 19 26 29 28 27 26 24 25 24 27 27 35 42 50 55 56 62 49 40 48 53 61 68 68 61 60 71 72 71 75 67 68 61 59 52 52 52 50 37
14 19 21 21 21 25 28 28 32 33 31 28 24 21 32 42 45 50 53 58 54 44 42 37 57 56 55 51 46 42 45 48 62 65 54 55 53 49 43 45 39 40 33
13 17 17 17 19 25 25 36 35 37 34 28 21 27 30 35 42 49 57 54 50 43 44 48 54 70 52 53 50 35 30 35 38 33 13 22 37 33 19 18 22 31 28
Wind_Direction_850mb
221 223 221 224 235 242 244 246 247 244 246 248 251 255 256 255 258 260 263 270 265 263 266 264 263 263 262 260 262 265 271 270 268 268 270 270 268 267 268 274 276 274 273
228 224 232 238 240 246 250 250 252 254 256 244 249 249 256 259 262 263 261 259 266 265 269 268 266 261 258 259 260 263 268 268 270 271 274 273 272 271 268 269 269 269 270
235 234 236 245 253 256 258 257 255 253 257 261 252 251 255 261 264 264 272 269 265 266 265 265 262 263 261 255 254 269 265 265 269 270 274 274 271 269 270 271 267 267 268
232 238 245 254 259 265 263 264 262 261 259 260 263 266 262 261 267 268 272 276 265 257 258 270 261 257 252 250 270 273 267 269 267 270 280 279 273 273 272 273 273 275 277
232 242 247 255 263 265 268 266 259 255 256 259 265 269 268 274 281 279 270 270 269 264 255 266 268 256 249 249 263 269 266 265 265 270 279 280 282 283 282 279 279 280 281
237 250 256 263 265 268 269 267 265 260 263 266 271 275 273 277 279 277 282 282 278 278 267 265 268 267 254 250 262 267 263 262 262 267 271 277 282 282 279 278 279 281 284
248 254 254 268 268 272 274 277 270 272 273 275 271 274 277 282 287 288 284 280 270 271 271 271 265 258 264 252 251 268 267 263 262 262 265 271 276 279 281 281 280 281 281
264 263 268 279 276 277 278 277 272 270 268 270 268 280 285 284 285 291 294 302 287 263 265 262 266 267 254 258 267 271 264 259 259 263 266 270 274 279 280 281 284 279 277
272 264 277 279 281 283 279 276 280 278 275 270 267 270 288 275 297 314 303 302 294 278 259 260 264 267 255 264 252 266 262 261 262 265 267 269 272 275 278 278 276 279 274
273 273 274 278 286 285 286 288 289 287 281 278 271 275 276 280 284 301 302 317 308 306 286 269 263 238 260 270 267 256 256 266 268 267 265 270 275 276 276 276 276 272 271
265 273 284 286 281 269 270 279 280 285 272 274 276 278 284 273 276 276 289 301 302 307 280 257 245 278 268 272 259 256 266 268 270 268 267 269 272 274 275 273 272 270 267
283 287 297 299 297 293 292 297 293 282 267 271 270 278 278 265 275 278 276 283 287 293 282 255 260 265 269 265 258 263 270 274 275 273 272 272 273 272 270 269 268 267 265
330 314 314 313 308 307 307 309 308 308 304 301 295 292 280 267 266 267 267 276 281 280 278 275 274 275 269 270 272 266 268 268 271 276 276 274 273 271 266 264 265 266 265
312 312 312 313 314 312 310 307 312 304 301 301 301 299 296 292 286 276 273 278 285 286 282 276 274 274 274 275 273 275 278 279 279 281 278 277 275 272 268 265 261 260 260
303 309 312 315 318 316 314 310 307 307 306 303 297 301 298 292 286 287 283 279 280 285 282 282 282 277 277 281 277 274 277 279 279 278 277 276 273 271 264 260 261 256 256
329 323 322 322 320 317 311 310 312 310 310 307 302 294 300 298 292 291 286 284 276 278 283 288 287 281 275 272 273 278 283 282 286 285 284 278 275 271 268 263 260 254 253
326 326 320 318 317 315 313 313 313 314 308 306 306 306 304 305 300 292 289 284 282 282 284 291 287 286 283 281 283 283 286 288 290 291 287 280 275 269 265 267 258 253 251
323 319 320 320 320 319 317 321 321 314 315 312 312 311 310 307 300 301 300 292 287 286 288 293 297 297 292 289 286 284 282 282 285 287 286 294 297 273 263 257 256 251 249
324 322 321 322 326 323 324 324 328 326 320 318 317 314 309 306 305 300 296 294 293 291 288 291 296 297 292 289 288 286 282 282 283 286 294 295 294 286 271 266 262 249 243
327 327 330 334 333 332 335 331 332 326 320 314 310 307 304 303 300 299 296 300 304 299 299 296 295 298 297 296 290 285 281 275 275 280 280 281 290 301 282 268 264 253 248
333 334 338 334 338 343 310 326 328 325 317 314 312 310 308 297 304 312 309 304 301 301 299 296 299 296 294 294 289 285 283 279 281 279 282 282 287 288 284 278 272 270 256
339 338 344 337 337 323 328 330 333 328 321 314 318 318 319 324 313 310 317 314 309 307 311 309 310 302 306 305 303 294 287 275 277 274 276 283 281 283 286 275 273 265 257
334 0 346 337 344 322 334 342 342 344 350 349 339 337 330 329 336 322 323 327 323 319 314 317 313 315 314 314 312 294 287 280 275 272 276 284 284 283 284 275 278 265 256
356 359 341 349 354 349 358 1 359 353 350 339 347 349 348 346 338 332 338 335 334 336 344 334 329 327 327 331 315 299 294 289 284 282 284 283 290 287 287 285 277 264 248
356 356 347 349 2 5 356 356 354 352 351 4 4 18 4 347 342 345 343 339 341 355 349 356 12 352 344 353 337 301 300 281 281 291 292 281 290 293 294 284 274 266 251
352 352 354 352 353 359 346 350 352 349 356 5 18 18 350 348 1 1 358 2 7 8 9 12 16 15 2 2 0 341 312 303 292 302 354 261 308 320 324 303 339 256 241